KI7JYE Weather Reports


Display with metric or nautical units.
time (UTC)temp
F
wind
direction
speed
MPH
gust
MPH
rain 1hr
in
rain 24hr
in
rain mn
in
humidity
%
barometer
mb
20260505083527 51 218 0.0 0.0 0.00 0.00 0.00 94 1012.9
20260505083023 51 226 0.0 0.0 0.00 0.00 0.00 94 1013.1
20260505082519 51 227 0.0 0.0 0.00 0.00 0.00 94 1013.1
20260505082016 51 227 0.0 0.0 0.00 0.00 0.00 93 1013.1
20260505081512 51 227 0.0 0.0 0.00 0.00 0.00 92 1012.7
20260505081009 51 223 0.0 0.0 0.00 0.00 0.00 92 1012.8
20260505080506 52 222 0.0 0.0 0.00 0.00 0.00 91 1013.0
20260505080002 52 230 0.0 0.0 0.00 0.00 0.00 91 1012.9
20260505075458 52 237 1.0 1.0 0.00 0.00 0.00 90 1012.8
20260505074955 52 234 1.0 1.0 0.00 0.00 0.00 90 1012.7
20260505074453 52 229 0.0 0.0 0.00 0.00 0.00 90 1012.6
20260505073950 52 233 0.0 1.0 0.00 0.00 0.00 90 1012.7
20260505073447 53 227 0.0 0.0 0.00 0.00 0.00 90 1012.6
20260505072944 53 253 3.0 3.0 0.00 0.00 0.00 90 1012.5
20260505072440 53 229 1.0 2.0 0.00 0.00 0.00 90 1012.3
20260505071937 53 225 0.0 0.0 0.00 0.00 0.00 90 1012.4
20260505071433 53 231 0.0 0.0 0.00 0.00 0.00 89 1012.4
20260505070931 53 242 1.0 2.0 0.00 0.00 0.00 90 1012.4
20260505070427 53 228 0.0 0.0 0.00 0.00 0.00 89 1012.5
20260505065923 53 255 0.0 0.0 0.00 0.00 0.00 89 1012.4
20260505065420 53 228 0.0 0.0 0.00 0.00 0.00 88 1012.2
20260505064916 53 230 0.0 0.0 0.00 0.00 0.00 88 1012.4
20260505064414 54 231 0.0 1.0 0.00 0.00 0.00 87 1012.2
20260505063912 54 222 0.0 0.0 0.00 0.00 0.00 87 1012.1
20260505063408 54 222 1.0 1.0 0.00 0.00 0.00 87 1012.0
20260505062904 54 233 0.0 0.0 0.00 0.00 0.00 87 1011.9
20260505062402 54 226 1.0 1.0 0.00 0.00 0.00 87 1011.9
20260505061858 54 224 0.0 0.0 0.00 0.00 0.00 86 1012.1
20260505061357 55 219 0.0 0.0 0.00 0.00 0.00 86 1012.0
20260505060854 55 231 3.0 3.0 0.00 0.00 0.00 86 1011.8
20260505060351 55 128 2.0 6.0 0.00 0.00 0.00 85 1011.9
20260505055847 55 230 1.0 2.0 0.00 0.00 0.00 85 1011.9
20260505055343 55 205 0.0 1.0 0.00 0.00 0.00 85 1011.8
20260505054840 55 223 0.0 0.0 0.00 0.00 0.00 85 1011.7
20260505054337 55 199 2.0 3.0 0.00 0.00 0.00 85 1011.6
20260505053836 55 193 0.0 1.0 0.00 0.00 0.00 84 1011.7
20260505053332 56 203 0.0 0.0 0.00 0.00 0.00 84 1011.7
20260505052829 56 192 2.0 2.0 0.00 0.00 0.00 84 1011.7
20260505052326 56 202 2.0 2.0 0.00 0.00 0.00 84 1011.7
20260505051823 56 181 0.0 1.0 0.00 0.00 0.00 83 1011.7
20260505051320 57 192 2.0 2.0 0.00 0.00 0.00 83 1011.6
20260505050818 57 218 0.0 1.0 0.00 0.00 0.00 83 1011.5
20260505050317 57 172 2.0 2.0 0.00 0.00 0.00 82 1011.4
20260505041746 59 233 1.0 1.0 0.00 0.00 0.00 78 1010.8
20260505041243 59 226 1.0 2.0 0.00 0.00 0.00 79 1010.6
20260505040741 60 218 0.0 0.0 0.00 0.00 0.00 78 1010.6
20260505040238 60 234 0.0 0.0 0.00 0.00 0.00 77 1010.2
20260505035735 60 219 0.0 0.0 0.00 0.00 0.00 77 1010.2
20260505035231 61 196 1.0 1.0 0.00 0.00 0.00 76 1010.4
20260505034728 61 212 0.0 0.0 0.00 0.00 0.00 76 1010.3
20260505034225 61 223 1.0 1.0 0.00 0.00 0.00 75 1010.2
20260505033721 62 223 1.0 1.0 0.00 0.00 0.00 74 1010.1
20260505033219 62 222 0.0 0.0 0.00 0.00 0.00 74 1010.0
20260505032717 63 224 0.0 0.0 0.00 0.00 0.00 73 1010.1
20260505032213 63 228 0.0 0.0 0.00 0.00 0.00 73 1010.0
20260505031711 64 231 0.0 1.0 0.00 0.00 0.00 72 1009.7
20260505031207 64 227 1.0 1.0 0.00 0.00 0.00 71 1009.9
20260505030703 65 233 0.0 0.0 0.00 0.00 0.00 70 1009.7
20260505030159 65 230 0.0 0.0 0.00 0.00 0.00 69 1009.5
20260505025655 66 222 0.0 0.0 0.00 0.00 0.00 69 1009.5
20260505025154 67 240 0.0 0.0 0.00 0.00 0.00 68 1009.6
20260505024651 67 224 1.0 1.0 0.00 0.00 0.00 67 1009.6
20260505024148 68 241 2.0 3.0 0.00 0.00 0.00 66 1009.4
20260505023646 69 258 2.0 3.0 0.00 0.00 0.00 66 1009.4
20260505023143 70 234 4.0 5.0 0.00 0.00 0.00 64 1009.4
20260505022640 71 225 1.0 2.0 0.00 0.00 0.00 63 1009.3
20260505022137 72 231 0.0 1.0 0.00 0.00 0.00 62 1009.2
20260505021634 72 236 0.0 1.0 0.00 0.00 0.00 61 1009.2
20260505021131 73 232 1.0 1.0 0.00 0.00 0.00 61 1009.2
20260505020626 73 213 1.0 1.0 0.00 0.00 0.00 61 1009.2
20260505020123 73 244 1.0 1.0 0.00 0.00 0.00 62 1009.2
20260505015620 73 285 0.0 1.0 0.00 0.00 0.00 60 1009.2
20260505015116 73 229 1.0 2.0 0.00 0.00 0.00 61 1009.3
20260505014613 73 289 3.0 5.0 0.00 0.00 0.00 59 1009.3
20260505014110 73 247 1.0 2.0 0.00 0.00 0.00 61 1009.1
20260505013608 74 225 3.0 3.0 0.00 0.00 0.00 60 1009.4
20260505013105 74 253 1.0 2.0 0.00 0.00 0.00 60 1009.1
20260505012603 75 230 1.0 2.0 0.00 0.00 0.00 60 1009.2
20260505012059 76 234 1.0 2.0 0.00 0.00 0.00 59 1009.1
20260505011555 75 233 2.0 3.0 0.00 0.00 0.00 60 1009.1
20260505011053 75 232 3.0 3.0 0.00 0.00 0.00 61 1009.5
20260505010548 75 246 1.0 1.0 0.00 0.00 0.00 61 1009.4
20260505010045 76 175 5.0 6.0 0.00 0.00 0.00 59 1009.5
20260505005541 77 241 1.0 1.0 0.00 0.00 0.00 56 1009.5
20260505005039 76 236 1.0 1.0 0.00 0.00 0.00 58 1009.3
20260505004535 76 222 0.0 1.0 0.00 0.00 0.00 58 1009.6
20260505004032 76 176 5.0 7.0 0.00 0.00 0.00 57 1009.3
20260505003529 77 234 1.0 1.0 0.00 0.00 0.00 58 1009.5
20260505003027 77 223 0.0 1.0 0.00 0.00 0.00 57 1009.2
20260505002527 75 227 2.0 3.0 0.00 0.00 0.00 59 1009.4
20260505002026 76 166 1.0 2.0 0.00 0.00 0.00 58 1009.6
20260505001523 76 236 2.0 2.0 0.00 0.00 0.00 59 1009.4
20260505001020 77 234 2.0 2.0 0.00 0.00 0.00 59 1009.5
20260505000517 78 227 1.0 2.0 0.00 0.00 0.00 58 1009.6
20260505000015 77 221 3.0 3.0 0.00 0.00 0.00 58 1009.6
20260504235512 78 259 0.0 0.0 0.00 0.00 0.00 56 1009.8
20260504235008 76 232 1.0 1.0 0.00 0.00 0.00 58 1009.7
20260504234505 77 218 1.0 2.0 0.00 0.00 0.00 57 1009.7
20260504234002 77 212 1.0 2.0 0.00 0.00 0.00 58 1009.9
20260504233457 76 230 2.0 3.0 0.00 0.00 0.00 58 1009.8
20260504232954 77 227 2.0 3.0 0.00 0.00 0.00 56 1010.0
20260504232451 76 192 2.0 3.0 0.00 0.00 0.00 59 1010.0
20260504231949 75 253 1.0 1.0 0.00 0.00 0.00 58 1009.9
20260504231445 75 221 0.0 0.0 0.00 0.00 0.00 59 1010.0
20260504230941 75 220 2.0 3.0 0.00 0.00 0.00 60 1010.0
20260504230438 75 220 2.0 2.0 0.00 0.00 0.00 59 1010.1
20260504225937 74 238 2.0 2.0 0.00 0.00 0.00 61 1010.1
20260504225434 76 254 3.0 3.0 0.00 0.00 0.00 58 1010.3
20260504224931 75 220 1.0 2.0 0.00 0.00 0.00 59 1010.2
20260504224427 75 234 2.0 2.0 0.00 0.00 0.00 59 1010.5
20260504223925 75 238 0.0 0.0 0.00 0.00 0.00 58 1010.2
20260504223420 75 259 3.0 3.0 0.00 0.00 0.00 59 1010.6
20260504222916 74 263 1.0 1.0 0.00 0.00 0.00 59 1010.4
20260504222414 73 234 1.0 1.0 0.00 0.00 0.00 62 1010.6
20260504221912 74 216 2.0 2.0 0.00 0.00 0.00 60 1010.6
20260504221408 74 229 1.0 2.0 0.00 0.00 0.00 59 1010.5
20260504220905 74 241 1.0 1.0 0.00 0.00 0.00 61 1010.6
20260504220402 73 234 2.0 3.0 0.00 0.00 0.00 60 1011.0
20260504215859 74 232 1.0 2.0 0.00 0.00 0.00 58 1010.8
20260504215355 74 232 3.0 5.0 0.00 0.00 0.00 59 1010.8
20260504214852 74 214 0.0 0.0 0.00 0.00 0.00 61 1010.8
20260504214349 74 226 0.0 0.0 0.00 0.00 0.00 61 1011.0
20260504213845 73 232 0.0 0.0 0.00 0.00 0.00 62 1011.1
20260504213341 69 106 2.0 6.0 0.00 0.00 0.00 67 1011.1
20260504212839 71 218 3.0 3.0 0.00 0.00 0.00 64 1011.2
20260504212334 73 198 4.0 6.0 0.00 0.00 0.00 61 1011.1
20260504211833 73 233 0.0 0.0 0.00 0.00 0.00 61 1011.4
20260504211328 71 232 1.0 1.0 0.00 0.00 0.00 62 1011.3
20260504210826 71 216 1.0 2.0 0.00 0.00 0.00 65 1011.7
20260504210323 69 226 0.0 0.0 0.00 0.00 0.00 65 1011.5
20260504205820 70 228 2.0 3.0 0.00 0.00 0.00 64 1011.7
20260504205318 68 184 2.0 2.0 0.00 0.00 0.00 65 1011.8
20260504204816 68 161 3.0 5.0 0.00 0.00 0.00 69 1011.9
20260504204314 67 183 2.0 3.0 0.00 0.00 0.00 69 1011.9
20260504203813 68 263 2.0 2.0 0.00 0.00 0.00 67 1011.8
20260504203309 67 230 3.0 6.0 0.00 0.00 0.00 67 1012.1
20260504202804 67 248 2.0 2.0 0.00 0.00 0.00 67 1012.0
20260504202304 66 274 0.0 1.0 0.00 0.00 0.00 68 1012.0
20260504201759 69 202 3.0 5.0 0.00 0.00 0.00 66 1012.4
20260504201256 67 266 4.0 5.0 0.00 0.00 0.00 67 1012.3
20260504200754 67 230 3.0 3.0 0.00 0.00 0.00 67 1012.3
20260504200249 68 188 3.0 3.0 0.00 0.00 0.00 67 1012.4
20260504195746 66 222 3.0 3.0 0.00 0.00 0.00 69 1012.3
20260504195242 64 237 0.0 0.0 0.00 0.00 0.00 71 1012.3
20260504194739 63 246 2.0 2.0 0.00 0.00 0.00 73 1012.3
20260504194235 65 167 2.0 3.0 0.00 0.00 0.00 71 1012.2
20260504193732 64 236 3.0 3.0 0.00 0.00 0.00 70 1012.3
20260504193229 66 229 0.0 0.0 0.00 0.00 0.00 69 1012.5
20260504192728 63 220 2.0 2.0 0.00 0.00 0.00 74 1012.6
20260504192225 64 150 4.0 5.0 0.00 0.00 0.00 73 1012.4
20260504191724 64 172 0.0 0.0 0.00 0.00 0.00 71 1012.6
20260504191220 64 235 1.0 2.0 0.00 0.00 0.00 72 1012.8
20260504190715 63 243 3.0 3.0 0.00 0.00 0.00 71 1012.7
20260504190212 62 225 0.0 0.0 0.00 0.00 0.00 74 1012.8
20260504185709 61 170 1.0 2.0 0.00 0.00 0.00 76 1012.6
20260504185206 62 222 0.0 0.0 0.00 0.00 0.00 75 1012.6
20260504184702 61 182 0.0 1.0 0.00 0.00 0.00 77 1012.6
20260504184157 60 214 2.0 3.0 0.00 0.00 0.00 78 1012.7
20260504183654 60 219 2.0 2.0 0.00 0.00 0.00 79 1012.7
20260504183151 60 238 1.0 1.0 0.00 0.00 0.00 77 1012.8
20260504182649 60 202 0.0 1.0 0.00 0.00 0.00 79 1012.8
20260504182146 60 232 0.0 0.0 0.00 0.00 0.00 79 1012.8
20260504181644 59 227 1.0 2.0 0.00 0.00 0.00 79 1012.8
20260504181141 59 215 0.0 0.0 0.00 0.00 0.00 79 1012.6
20260504180640 59 224 1.0 1.0 0.00 0.00 0.00 78 1012.8
20260504180138 59 277 3.0 3.0 0.00 0.00 0.00 79 1012.7
20260504175635 59 242 0.0 1.0 0.00 0.00 0.00 79 1012.7
20260504175131 59 195 1.0 1.0 0.00 0.00 0.00 79 1012.5
20260504174630 59 235 1.0 1.0 0.00 0.00 0.00 80 1012.5
20260504174126 59 238 1.0 1.0 0.00 0.00 0.00 80 1012.8
20260504173623 58 217 0.0 0.0 0.00 0.00 0.00 81 1012.5
20260504173121 58 228 2.0 5.0 0.00 0.00 0.00 82 1012.6
20260504172617 58 236 2.0 2.0 0.00 0.00 0.00 82 1012.7
20260504172114 57 231 1.0 2.0 0.00 0.00 0.00 82 1012.8
20260504171610 58 234 0.0 0.0 0.00 0.00 0.00 82 1012.4
20260504171108 58 251 2.0 2.0 0.00 0.00 0.00 82 1012.8
20260504170603 57 235 1.0 1.0 0.00 0.00 0.00 83 1012.7
20260504150947 55 220 0.0 1.0 0.00 0.00 0.00 89 1012.3
20260504150444 55 241 2.0 2.0 0.00 0.00 0.00 90 1012.1
20260504140910 53 230 0.0 0.0 0.00 0.00 0.00 92 1011.6
20260504140406 53 226 0.0 0.0 0.00 0.00 0.00 93 1011.8
20260504130331 52 220 0.0 0.0 0.00 0.00 0.00 95 1010.6
20260504120254 53 215 1.0 1.0 0.00 0.00 0.00 91 1010.0
20260504110218 54 224 0.0 0.0 0.00 0.00 0.00 89 1009.6
20260504100142 57 230 0.0 0.0 0.00 0.00 0.00 84 1008.8
20260504090105 60 204 1.0 1.0 0.00 0.00 0.00 78 1008.2